OpenBCM V1.13 (Linux)

Packet Radio Mailbox

DB0FHN

[JN59NK Nuernberg]

 Login: GUEST





  
LU9DCE > KEP      09.08.19 20:07l 247 Lines 12263 Bytes #-2508 (0) @ WW
BID : 29677_LU9DCE
Read: DF7EAV DJ6UX GUEST
Subj: TLE 09 08
Path: DB0FHN<DB0BLO<DB0ERF<IZ3LSV<I3XTY<I0OJJ<LU9DCE
Sent: 190809/1801Z 29677@LU9DCE.TOR.BA.ARG.SOAM LinBPQ6.0.17

>From lu9dce%lu9dce.tor.ba.arg.soam@i0ojj.ampr.org Fri Aug  9 20:02:35 2019
Received: from i0ojj.ampr.org by i0ojj.ampr.org (JNOS2.0k.3b) with SMTP
	id AA24511 ; Fri, 09 Aug 2019 20:02:35 +0200
Message-Id: <29677_lu9dce@lu9dce.bbs>
>From: lu9dce@lu9dce.tor.ba.arg.soam
X-JNOS-User-Port: Circuit  (X-YORK:VE3CGR-8 LU9DCE)  -> Sending message

            __    _  _  ___  ____   ___  ____    ____  ____  ____
           (  )  / )( \/ _ \(    \ / __)(  __)  (  _ \(  _ \/ ___)
           / (_/\) \/ (\__  )) D (( (__  ) _)    ) _ ( ) _ (\___ \
           \____/\____/(___/(____/ \___)(____)  (____/(____/(____/
               ESTACION DE PACKET RADIO - BUENOS AIRES (GF05OM)
                   BOLETINES INFORMATIVOS PROGRAMADOS (BIP)
                  SLACKWARE LINUX - HELLOCODELINUX@GMAIL.COM
                          https://slacko.home.blog
+----------------------------------------------------------------------------+
OSCAR 7
1  7530U 74089B   19221.01383750 -.00000023  00000-0  13913-3 0  9991
2  7530 101.7478 188.1571 0011714 248.1695 153.8642 12.53639245 46958
OSCAR 11 (UoSAT 2)
1 14781U 84021B   19221.51565908  .00000048  00000-0  12043-4 0  9996
2 14781  97.6088 243.7767 0009411 141.6365 218.5520 14.83099240906444
OSCAR 19 (LUSAT)
1 20442U 90005G   19221.41096425 -.00000011  00000-0  12188-4 0  9999
2 20442  98.6504 163.3311 0011856   2.9263 357.1988 14.32930123543783
EYESAT A
1 22825U 93061C   19221.48509412 -.00000005  00000-0  16225-4 0  9992
2 22825  98.9060 211.3111 0007918 201.2447 158.8406 14.30063866349351
ITAMSAT
1 22826U 93061D   19220.91509698 -.00000013  00000-0  12819-4 0  9990
2 22826  98.9000 210.7131 0008598 191.7470 168.3512 14.30397500349477
RADIO ROSTO
1 23439U 94085A   19220.86786391 -.00000034 +00000-0 +23999-3 0  9992
2 23439 064.8182 033.3643 0146101 103.2834 258.4429 11.27568693013666
JAS 2
1 24278U 96046B   19221.53374988 -.00000036  00000-0 -38963-5 0  9995
2 24278  98.5445   7.9236 0351352 105.5678 258.4531 13.53093008134815
TECHSAT 1B
1 25397U 98043D   19221.41650800 -.00000019  00000-0  10963-4 0  9993
2 25397  98.6902 160.9397 0000421 184.4738 175.6437 14.23668668 95231
ISS (ZARYA)
1 25544U 98067A   19221.46255355  .00001847  00000-0  38989-4 0  9991
2 25544  51.6445  96.9468 0005864 235.7599 183.1081 15.51047605183527
PCSAT
1 26931U 01043C   19221.02743348 -.00000024  00000-0  22529-4 0  9996
2 26931  67.0491 231.2089 0007417 274.8901  85.1353 14.30548857932313
SAUDISAT 1C
1 27607U 02058C   19221.12312662 -.00000057  00000-0  12952-4 0  9991
2 27607  64.5534 252.3516 0079405 246.6643 112.6091 14.75563333894620
CUTE-1
1 27844U 03031E   19221.01144058  .00000036  00000-0  36080-4 0  9990
2 27844  98.6840 228.4573 0008738 239.1708 120.8610 14.22188600835588
CUBESAT XI 4
1 27848U 03031J   19220.94782370  .00000018  00000-0  27936-4 0  9990
2 27848  98.6917 228.9058 0008542 252.4522 107.5722 14.21782508835420
MOZHAYETS 4
1 27939U 03042A   19221.41543738  .00000177  00000-0  40409-4 0  9995
2 27939  98.0487 356.2427 0011793 263.4805  96.5063 14.66795125848124
CUBESAT XI 5
1 28895U 05043F   19221.05344471  .00000086  00000-0  25361-4 0  9992
2 28895  97.9660   2.0438 0016743 184.8619 175.2424 14.63680458734998
CUTE-1.7+APD II
1 32785U 08021C   19221.11762682  .00000139  00000-0  20558-4 0  9991
2 32785  97.5510 218.4102 0014737  92.2089 268.0816 14.88328567611331
DELFI C3
1 32789U 08021G   19220.94455449 +.00001171 +00000-0 +82105-4 0  9998
2 32789 097.4608 269.0549 0010834 315.3611 044.6744 15.07037908614589
SEEDS
1 32791U 08021J   19220.98234878  .00000153  00000-0  20824-4 0  9995
2 32791  97.5285 224.3058 0014912  69.7480 290.5340 14.90846328611753
YUBELEINY
1 32953U 08025A   19221.47621240  .00000020  00000-0  75656-4 0  9993
2 32953  82.5020 112.5668 0020197  17.8780 342.3004 12.43090796508741
PRISM (HITOMI)
1 33493U 09002B   19221.34199366  .00000852  00000-0  80089-4 0  9993
2 33493  98.1208 144.2555 0015737  18.5695 341.6096 14.96696337572877
KKS-1 (KISEKI)
1 33499U 09002H   19221.14763611  .00000046  00000-0  14776-4 0  9992
2 33499  98.3479  61.4887 0010170  48.3318 311.8759 14.75453228566811
SWISSCUBE
1 35932U 09051B   19221.47125068  .00000084  00000-0  29959-4 0  9995
2 35932  98.5929  28.9727 0007823  16.2148 343.9298 14.56298301524315
BEESAT
1 35933U 09051C   19220.92146067 +.00000065 +00000-0 +25766-4 0  9998
2 35933 098.5952 030.1876 0006359 032.6372 327.5216 14.56385643524264
ITUPSAT 1
1 35935U 09051E   19220.93995622 +.00000068 +00000-0 +26781-4 0  9991
2 35935 098.6062 030.4409 0008604 027.2665 332.8982 14.55543908524060
XIWANG-1 (HOPE-1)
1 36122U 09072B   19221.19088630 -.00000028  00000-0  36039-4 0  9998
2 36122 100.0738 221.1513 0006800 228.0820 131.9715 13.16350585463654
TISAT 1
1 36799U 10035E   19220.95034493 +.00000123 +00000-0 +18510-4 0  9999
2 36799 098.1620 014.8208 0010853 278.6859 081.3129 14.91129798492209
JUGNU
1 37839U 11058B   19220.89499733  .00000287  00000-0  11287-4 0  9991
2 37839  19.9628  24.2739 0018809 171.4819 350.5727 14.12655057404509
SRMSAT
1 37841U 11058D   19221.01366678  .00000289  00000-0  13913-4 0  9990
2 37841  19.9730  81.3892 0011870  40.5984 101.2657 14.10636011403947
M-CUBED/EXP-1 PRIME
1 37855U 11061F   19221.37219745  .00000547  00000-0  35620-4 0  9996
2 37855 101.7102 143.4959 0173107 283.6538  74.5451 15.05524085424552
HORYU 2
1 38340U 12025D   19221.10644217  .00000089  00000-0  21002-4 0  9994
2 38340  98.3257 261.2303 0010612 325.9677  34.0849 14.75735140388745
STRAND 1
1 39090U 13009E   19221.51999050  .00000006  00000-0  17166-4 0  9998
2 39090  98.4846  66.5981 0010024 129.8714 230.3354 14.35092157337826
SOMP
1 39134U 13015E   19221.33061676  .00000813  00000-0  46343-4 0  9993
2 39134  64.8614 213.1273 0033990 295.6042  64.1574 15.20234922348442
BEESAT 3
1 39135U 13015F   19221.41037078  .00000559  00000-0  37474-4 0  9994
2 39135  64.8678 231.8982 0028385 310.0978  49.7660 15.17532578348099
BEESAT 2
1 39136U 13015G   19221.46692260  .00000326  00000-0  26393-4 0  9990
2 39136  64.8673 235.6891 0021751 301.7648  58.1358 15.16952656348020
CUBEBUG 1
1 39153U 13018D   19221.46379131  .00000090  00000-0  18728-4 0  9992
2 39153  97.9801 319.3023 0017660  35.1452 325.0921 14.80581019339473
ZACUBE
1 39417U 13066B   19221.52177409  .00000123  00000-0  21980-4 0  9990
2 39417  97.5621 232.1107 0057819 222.9546 136.7146 14.81132664308715
TRITON 1
1 39427U 13066M   19220.58152691  .00000198  00000-0  39583-4 0  9992
2 39427  97.6801 194.8248 0113990   3.3537 356.8407 14.67860842305803
GOMX 1
1 39430U 13066Q   19221.39271105  .00000133  00000-0  32660-4 0  9996
2 39430  97.7507 174.5507 0152574  91.1524 270.7162 14.59267762304147
HUMSAT D
1 39433U 13066T   19220.37567038  .00000082  00000-0  13255-4 0  9991
2 39433  97.5500 265.8011 0032100 129.8578 230.5473 14.92220846310634
CUBEBUG 2
1 39440U 13066AA  19221.48110722  .00000124  00000-0  24507-4 0  9995
2 39440  97.6039 216.8653 0078669 276.9463  82.2804 14.75870770307617
FUNCUBE 1
1 39444U 13066AE  19221.02105553  .00000172  00000-0  27547-4 0  9995
2 39444  97.5600 233.6336 0057046 218.1374 141.5798 14.81954590307536
UWE-3
1 39446U 13066AG  19221.53195018  .00000125  00000-0  23471-4 0  9998
2 39446  97.5820 223.9925 0068495 250.4898 108.8907 14.78405412306928
SPROUT
1 39770U 14029E   19221.36558755  .00000368  00000-0  46797-4 0  9995
2 39770  97.8865 324.3291 0007703 277.9337  82.0996 14.87380891282511
UNISAT 6
1 40012U 14033C   19220.86052725 +.00000101 +00000-0 +22648-4 0  9995
2 40012 097.7514 085.2513 0056994 293.5259 065.9969 14.73992544276225
DUCHIFAT 1
1 40021U 14033M   19221.36567007  .00000142  00000-0  20362-4 0  9991
2 40021  97.9228 146.1304 0011513 236.8923 123.1190 14.90655208279240
QB50P1
1 40025U 14033R   19220.84135474 +.00000160 +00000-0 +22993-4 0  9998
2 40025 097.9041 140.4417 0010987 249.5142 110.4896 14.88962794278426
CHUBUSAT 1
1 40300U 14070C   19221.52412221  .00000485  00000-0  24115-4 0  9997
2 40300  97.3233 294.3907 0018694 233.2139 185.7476 15.22125836263904
NUDT-PHONESAT
1 40900U 15049B   19221.49863831  .00001873  00000-0  82745-4 0  9998
2 40900  97.4371 230.3261 0013221  10.7784 141.4730 15.22913630215548
ZDPS 2A
1 40901U 15049C   19221.36870652  .00000639  00000-0  34911-4 0  9995
2 40901  97.4606 226.4461 0014430  28.9460  81.4799 15.17775722215071
ZDPS 2B
1 40902U 15049D   19221.39951690  .00001158  00000-0  60847-4 0  9995
2 40902  97.4550 223.9365 0014474  26.2502  81.4275 15.17611530215054
XW-2A
1 40903U 15049E   19221.37782353  .00001821  00000-0  44694-4 0  9991
2 40903  97.3341 264.4262 0012675 324.6989 159.1696 15.41975330218212
KAITUO 1A
1 40904U 15049F   19221.44862936  .00000204  00000-0  14309-4 0  9990
2 40904  97.4681 222.5723 0015588  33.6812 124.9499 15.15389780214830
OBJECT G
1 40905U 15049G   19221.35849427  .00000090  00000-0  84978-5 0  9994
2 40905  97.4721 219.9832 0016472  28.9785  81.2279 15.14313782214699
XW-2C
1 40906U 15049H   19221.36345346  .00000330  00000-0  20796-4 0  9991
2 40906  97.4690 222.5873 0015625  25.2768  81.7123 15.15709289214820
XW-2D
1 40907U 15049J   19221.40665508  .00000779  00000-0  44054-4 0  9992
2 40907  97.4668 222.3080 0014924  23.0982 116.6685 15.15903446214843
LILACSAT 2
1 40908U 15049K   19221.35327653  .00000220  00000-0  15743-4 0  9997
2 40908  97.4803 221.0445 0016865  28.5669  78.3371 15.13822468214628
XW-2F
1 40910U 15049M   19221.52056035  .00000775  00000-0  42114-4 0  9999
2 40910  97.4633 224.4855 0015500  15.2863 141.4166 15.17353507214876
XW-2B
1 40911U 15049N   19221.43514059  .00000350  00000-0  21734-4 0  9999
2 40911  97.4687 222.9936 0014817  23.7724  80.2025 15.15829886214745
